• In Belarus
  • List of Countries
  • For 7 days
  • Water Temperature
  • Satellite Maps
  • Weather Map
  • Weather Widgets
  • user-avatar
    Login

    Hourly Weather Einsiedeln

    Today, 23 September, Sunday

    Time Temperature Precipitation Wind Pressure Humidity
    00:00 +14°C° 0.1 mm 1 mps 678 mmHg 76%
    01:00 +14°C° 0.1 mm 1 mps 678 mmHg 77%
    02:00 +14°C° 0 mm 1 mps 678 mmHg 78%
    03:00 +14°C° 0 mm 2 mps 678 mmHg 78%
    04:00 +14°C° 0 mm 2 mps 678 mmHg 79%
    05:00 +14°C° 0 mm 2 mps 678 mmHg 79%
    06:00 +14°C° 0 mm 2 mps 678 mmHg 79%
    07:00 +14°C° 0 mm 2 mps 678 mmHg 78%
    08:00 +16°C° 0 mm 2 mps 678 mmHg 73%
    09:00 +18°C° 0 mm 2 mps 678 mmHg 68%
    10:00 +20°C° 0 mm 2 mps 679 mmHg 63%
    11:00 +21°C° 0 mm 3 mps 679 mmHg 61%
    12:00 +22°C° 0 mm 3 mps 678 mmHg 59%
    13:00 +23°C° 0 mm 4 mps 678 mmHg 57%
    14:00 +23°C° 0.2 mm 4 mps 678 mmHg 59%
    15:00 +23°C° 0.2 mm 4 mps 677 mmHg 61%
    16:00 +23°C° 0.2 mm 4 mps 677 mmHg 63%
    17:00 +21°C° 0.8 mm 4 mps 676 mmHg 71%
    18:00 +19°C° 0.8 mm 4 mps 676 mmHg 79%
    19:00 +17°C° 0.8 mm 4 mps 675 mmHg 87%
    20:00 +17°C° 1.1 mm 4 mps 675 mmHg 90%
    21:00 +15°C° 1.1 mm 4 mps 676 mmHg 92%
    22:00 +14°C° 1.1 mm 5 mps 676 mmHg 94%
    23:00 +13°C° 2.1 mm 4 mps 677 mmHg 95%

    Tomorrow, 24 September, Monday

    Time Temperature Precipitation Wind Pressure Humidity
    00:00 +12°C° 2.1 mm 3 mps 677 mmHg 95%
    01:00 +11°C° 2.1 mm 3 mps 678 mmHg 95%
    02:00 +10°C° 0.6 mm 3 mps 678 mmHg 95%
    03:00 +9°C° 0.6 mm 3 mps 679 mmHg 95%
    04:00 +8°C° 0.6 mm 3 mps 679 mmHg 95%
    05:00 +8°C° 0.1 mm 3 mps 679 mmHg 95%
    06:00 +7°C° 0.1 mm 2 mps 680 mmHg 94%
    07:00 +7°C° 0.1 mm 2 mps 680 mmHg 94%
    08:00 +7°C° 0.1 mm 3 mps 681 mmHg 91%
    09:00 +8°C° 0.1 mm 3 mps 681 mmHg 87%
    10:00 +8°C° 0.1 mm 3 mps 682 mmHg 84%
    11:00 +9°C° 0.1 mm 3 mps 682 mmHg 79%
    12:00 +9°C° 0.1 mm 3 mps 682 mmHg 75%
    13:00 +10°C° 0.1 mm 3 mps 682 mmHg 70%
    14:00 +10°C° 0 mm 3 mps 682 mmHg 68%
    15:00 +10°C° 0 mm 3 mps 683 mmHg 66%
    16:00 +10°C° 0 mm 3 mps 683 mmHg 64%
    17:00 +9°C° 0 mm 3 mps 683 mmHg 69%
    18:00 +8°C° 0 mm 3 mps 683 mmHg 74%
    19:00 +5°C° 0 mm 3 mps 683 mmHg 78%
    20:00 +6°C° 0 mm 2 mps 683 mmHg 80%
    21:00 +5°C° 0 mm 2 mps 684 mmHg 81%
    22:00 +4°C° 0 mm 2 mps 684 mmHg 83%
    23:00 +4°C° 0 mm 2 mps 684 mmHg 82%

    Day after tomorrow, 25 September, Tuesday

    Time Temperature Precipitation Wind Pressure Humidity
    00:00 +4°C° 0 mm 2 mps 684 mmHg 82%
    01:00 +3°C° 0 mm 2 mps 684 mmHg 82%
    02:00 +3°C° 0 mm 2 mps 684 mmHg 80%
    03:00 +3°C° 0 mm 2 mps 684 mmHg 79%
    04:00 +3°C° 0 mm 2 mps 684 mmHg 77%
    05:00 +3°C° 0 mm 2 mps 684 mmHg 75%
    06:00 +3°C° 0 mm 2 mps 684 mmHg 74%
    07:00 +4°C° 0 mm 2 mps 684 mmHg 72%
    08:00 +6°C° 0 mm 2 mps 684 mmHg 65%
    09:00 +8°C° 0 mm 2 mps 685 mmHg 58%
    10:00 +11°C° 0 mm 3 mps 685 mmHg 51%
    11:00 +12°C° 0 mm 3 mps 685 mmHg 49%
    12:00 +13°C° 0 mm 3 mps 685 mmHg 48%
    13:00 +14°C° 0 mm 3 mps 685 mmHg 47%
    14:00 +13°C° 0 mm 3 mps 685 mmHg 50%
    15:00 +13°C° 0 mm 3 mps 685 mmHg 53%
    16:00 +13°C° 0 mm 3 mps 684 mmHg 56%
    17:00 +11°C° 0 mm 3 mps 684 mmHg 65%
    18:00 +8°C° 0 mm 2 mps 684 mmHg 74%
    19:00 +6°C° 0 mm 2 mps 684 mmHg 82%
    20:00 +6°C° 0 mm 2 mps 684 mmHg 84%
    21:00 +6°C° 0 mm 2 mps 684 mmHg 85%
    22:00 +5°C° 0 mm 2 mps 684 mmHg 86%
    23:00 +6°C° 0 mm 1 mps 684 mmHg 86%

    26 September, Wednesday

    Time Temperature Precipitation Wind Pressure Humidity
    00:00 +6°C° 0 mm 1 mps 684 mmHg 87%
    01:00 +6°C° 0 mm 1 mps 684 mmHg 88%
    02:00 +6°C° 0 mm 1 mps 684 mmHg 87%
    03:00 +5°C° 0 mm 1 mps 684 mmHg 86%
    04:00 +5°C° 0 mm 1 mps 684 mmHg 85%
    05:00 +6°C° 0 mm 1 mps 684 mmHg 83%
    06:00 +6°C° 0 mm 1 mps 684 mmHg 80%
    07:00 +6°C° 0 mm 1 mps 684 mmHg 78%
    08:00 +9°C° 0 mm 1 mps 685 mmHg 68%
    09:00 +13°C° 0 mm 1 mps 686 mmHg 58%
    10:00 +15°C° 0 mm 0 mps 686 mmHg 48%
    11:00 +18°C° 0 mm 1 mps 686 mmHg 46%
    12:00 +19°C° 0 mm 1 mps 686 mmHg 44%
    13:00 +21°C° 0 mm 1 mps 687 mmHg 42%
    14:00 +20°C° 0 mm 1 mps 686 mmHg 46%
    15:00 +20°C° 0 mm 1 mps 686 mmHg 49%
    16:00 +20°C° 0 mm 1 mps 686 mmHg 52%
    17:00 +16°C° 0 mm 1 mps 685 mmHg 62%
    18:00 +14°C° 0 mm 1 mps 685 mmHg 72%
    19:00 +11°C° 0 mm 1 mps 684 mmHg 82%
    20:00 +11°C° 0 mm 1 mps 684 mmHg 81%
    21:00 +10°C° 0 mm 1 mps 685 mmHg 80%
    22:00 +10°C° 0 mm 1 mps 685 mmHg 80%
    23:00 +10°C° 0 mm 1 mps 684 mmHg 79%

    27 September, Thursday

    Time Temperature Precipitation Wind Pressure Humidity
    00:00 +10°C° 0 mm 1 mps 684 mmHg 79%
    01:00 +10°C° 0 mm 1 mps 684 mmHg 79%
    02:00 +9°C° 0 mm 1 mps 684 mmHg 78%
    03:00 +9°C° 0 mm 1 mps 684 mmHg 77%
    04:00 +9°C° 0 mm 1 mps 684 mmHg 76%
    05:00 +9°C° 0 mm 1 mps 684 mmHg 74%
    06:00 +10°C° 0 mm 1 mps 684 mmHg 72%
    07:00 +10°C° 0 mm 1 mps 684 mmHg 70%
    08:00 +13°C° 0 mm 1 mps 684 mmHg 62%
    09:00 +16°C° 0 mm 1 mps 684 mmHg 54%
    10:00 +20°C° 0 mm 1 mps 685 mmHg 47%
    11:00 +21°C° 0 mm 1 mps 685 mmHg 45%
    12:00 +22°C° 0 mm 1 mps 684 mmHg 43%
    13:00 +23°C° 0 mm 1 mps 684 mmHg 42%
    14:00 +22°C° 0 mm 1 mps 684 mmHg 45%
    15:00 +22°C° 0 mm 1 mps 683 mmHg 48%
    16:00 +22°C° 0 mm 1 mps 683 mmHg 51%
    17:00 +19°C° 0 mm 1 mps 682 mmHg 61%
    18:00 +15°C° 0 mm 1 mps 681 mmHg 71%
    19:00 +12°C° 0 mm 1 mps 681 mmHg 81%
    20:00 +12°C° 0 mm 1 mps 681 mmHg 81%
    21:00 +12°C° 0 mm 1 mps 681 mmHg 82%
    22:00 +11°C° 0 mm 1 mps 680 mmHg 83%
    23:00 +11°C° 0 mm 1 mps 680 mmHg 81%

    28 September, Friday

    Time Temperature Precipitation Wind Pressure Humidity
    00:00 +11°C° 0 mm 1 mps 680 mmHg 80%
    01:00 +10°C° 0 mm 1 mps 680 mmHg 78%
    02:00 +10°C° 0 mm 1 mps 679 mmHg 76%
    03:00 +10°C° 0 mm 1 mps 679 mmHg 73%
    04:00 +10°C° 0 mm 1 mps 678 mmHg 70%
    05:00 +10°C° 0 mm 1 mps 678 mmHg 69%
    06:00 +10°C° 0 mm 1 mps 678 mmHg 67%
    07:00 +10°C° 0 mm 1 mps 678 mmHg 66%
    08:00 +12°C° 0 mm 1 mps 679 mmHg 60%
    09:00 +15°C° 0 mm 1 mps 679 mmHg 55%
    10:00 +19°C° 0 mm 1 mps 680 mmHg 50%
    11:00 +20°C° 0 mm 1 mps 679 mmHg 48%
    12:00 +21°C° 0 mm 1 mps 679 mmHg 47%
    13:00 +21°C° 0 mm 1 mps 679 mmHg 46%
    14:00 +21°C° 0 mm 1 mps 679 mmHg 49%
    15:00 +21°C° 0 mm 1 mps 678 mmHg 52%
    16:00 +20°C° 0 mm 1 mps 678 mmHg 56%
    17:00 +18°C° 0 mm 1 mps 678 mmHg 66%
    18:00 +14°C° 0 mm 1 mps 677 mmHg 76%
    19:00 +12°C° 0 mm 1 mps 677 mmHg 86%
    20:00 +11°C° 0 mm 1 mps 677 mmHg 88%
    21:00 +11°C° 0 mm 1 mps 677 mmHg 90%
    22:00 +11°C° 0 mm 1 mps 677 mmHg 91%
    23:00 +10°C° 0 mm 1 mps 677 mmHg 91%
    Show more